Time,TemperatureF,DewpointF,PressureIn,WindDirection,WindDirectionDegrees,WindSpeedMPH,WindSpeedGustMPH,Humidity,HourlyPrecipIn,Conditions,Clouds,dailyrainin,SoftwareType,DateUTC
2013-03-05 00:02:00,52.0,-99.9,30.10,South,179,5.0,8.0,-999,-99.99,,,-99.99,,2013-03-05 05:02:00,
2013-03-05 00:12:00,52.0,-99.9,30.10,South,190,4.0,7.0,-999,-99.99,,,-99.99,,2013-03-05 05:12:00,
2013-03-05 00:23:00,52.0,-99.9,30.11,SSW,210,4.0,7.0,-999,-99.99,,,-99.99,,2013-03-05 05:23:00,
2013-03-05 00:32:00,52.0,-99.9,30.09,South,182,4.0,7.0,-999,-99.99,,,-99.99,,2013-03-05 05:32:00,
2013-03-05 00:42:00,52.0,-99.9,30.09,SSE,160,2.0,3.0,-999,-99.99,,,-99.99,,2013-03-05 05:42:00,
2013-03-05 00:52:00,52.0,-99.9,30.09,South,183,4.0,7.0,-999,-99.99,,,-99.99,,2013-03-05 05:52:00,
2013-03-05 01:02:00,52.0,-99.9,30.06,SSE,161,4.0,8.0,-999,-99.99,,,-99.99,,2013-03-05 06:02:00,
2013-03-05 01:11:00,53.0,-99.9,30.06,SSE,158,5.0,9.0,-999,-99.99,,,-99.99,,2013-03-05 06:11:00,
2013-03-05 01:22:00,53.0,-99.9,30.06,South,179,6.0,11.0,-999,-99.99,,,-99.99,,2013-03-05 06:22:00,
2013-03-05 01:32:00,53.0,-99.9,30.07,South,190,5.0,8.0,-999,-99.99,,,-99.99,,2013-03-05 06:32:00,
2013-03-05 01:42:00,53.0,-99.9,30.08,SSW,199,6.0,9.0,-999,-99.99,,,-99.99,,2013-03-05 06:42:00,
2013-03-05 01:52:00,53.0,-99.9,30.10,WSW,250,5.0,6.0,-999,-99.99,,,-99.99,,2013-03-05 06:52:00,
2013-03-05 02:01:00,53.0,-99.9,30.09,SW,229,4.0,4.0,-999,-99.99,,,-99.99,,2013-03-05 07:01:00,
2013-03-05 02:11:00,52.0,-99.9,30.09,SW,220,3.0,4.0,-999,-99.99,,,-99.99,,2013-03-05 07:11:00,
2013-03-05 02:22:00,52.0,-99.9,30.10,SW,227,2.0,3.0,-999,-99.99,,,-99.99,,2013-03-05 07:22:00,
2013-03-05 02:32:00,52.0,-99.9,30.11,WSW,257,4.0,5.0,-999,-99.99,,,-99.99,,2013-03-05 07:32:00,
2013-03-05 02:42:00,52.0,-99.9,30.11,West,262,4.0,5.0,-999,-99.99,,,-99.99,,2013-03-05 07:42:00,
2013-03-05 02:52:00,52.0,-99.9,30.10,WNW,284,3.0,4.0,-999,-99.99,,,-99.99,,2013-03-05 07:52:00,
2013-03-05 03:02:00,51.0,-99.9,30.10,NW,316,3.0,4.0,-999,-99.99,,,-99.99,,2013-03-05 08:02:00,
2013-03-05 03:11:00,51.0,-99.9,30.09,NNW,337,1.0,2.0,-999,-99.99,,,-99.99,,2013-03-05 08:11:00,
2013-03-05 03:21:00,50.0,-99.9,30.10,NW,310,2.0,3.0,-999,-99.99,,,-99.99,,2013-03-05 08:21:00,
2013-03-05 03:32:00,50.0,-99.9,30.10,NW,311,2.0,3.0,-999,-99.99,,,-99.99,,2013-03-05 08:32:00,
2013-03-05 03:42:00,50.0,-99.9,30.10,NW,311,2.0,3.0,-999,-99.99,,,-99.99,,2013-03-05 08:42:00,
2013-03-05 03:52:00,49.0,-99.9,30.10,WNW,286,1.0,1.0,-999,-99.99,,,-99.99,,2013-03-05 08:52:00,
2013-03-05 04:02:00,49.0,-99.9,30.09,SW,220,1.0,2.0,-999,-99.99,,,-99.99,,2013-03-05 09:02:00,
2013-03-05 04:11:00,49.0,-99.9,30.09,WSW,244,1.0,2.0,-999,-99.99,,,-99.99,,2013-03-05 09:11:00,
2013-03-05 04:22:00,51.0,-99.9,30.11,WSW,242,3.0,4.0,-999,-99.99,,,-99.99,,2013-03-05 09:22:00,
2013-03-05 04:32:00,51.0,-99.9,30.11,WSW,255,2.0,3.0,-999,-99.99,,,-99.99,,2013-03-05 09:32:00,
2013-03-05 04:43:00,50.0,-99.9,30.10,WSW,238,2.0,2.0,-999,-99.99,,,-99.99,,2013-03-05 09:43:00,
2013-03-05 04:52:00,50.0,-99.9,30.11,WNW,286,3.0,3.0,-999,-99.99,,,-99.99,,2013-03-05 09:52:00,
2013-03-05 05:02:00,49.0,-99.9,30.11,West,269,2.0,3.0,-999,-99.99,,,-99.99,,2013-03-05 10:02:00,
2013-03-05 05:11:00,49.0,-99.9,30.11,WSW,251,2.0,3.0,-999,-99.99,,,-99.99,,2013-03-05 10:11:00,
2013-03-05 05:22:00,49.0,-99.9,30.11,SW,229,3.0,3.0,-999,-99.99,,,-99.99,,2013-03-05 10:22:00,
2013-03-05 05:32:00,48.0,-99.9,30.11,WSW,245,2.0,2.0,-999,-99.99,,,-99.99,,2013-03-05 10:32:00,
2013-03-05 05:42:00,48.0,-99.9,30.11,WSW,248,2.0,3.0,-999,-99.99,,,-99.99,,2013-03-05 10:42:00,
2013-03-05 05:52:00,48.0,-99.9,30.13,WSW,243,4.0,5.0,-999,-99.99,,,-99.99,,2013-03-05 10:52:00,
2013-03-05 06:02:00,49.0,-99.9,30.13,WSW,255,4.0,5.0,-999,-99.99,,,-99.99,,2013-03-05 11:02:00,
2013-03-05 06:12:00,49.0,-99.9,30.13,WSW,254,3.0,4.0,-999,-99.99,,,-99.99,,2013-03-05 11:12:00,
2013-03-05 06:22:00,48.0,-99.9,30.13,SSW,208,3.0,4.0,-999,-99.99,,,-99.99,,2013-03-05 11:22:00,
2013-03-05 06:32:00,48.0,-99.9,30.13,SSW,212,4.0,4.0,-999,-99.99,,,-99.99,,2013-03-05 11:32:00,
2013-03-05 06:42:00,48.0,-99.9,30.13,SSW,207,3.0,4.0,-999,-99.99,,,-99.99,,2013-03-05 11:42:00,
2013-03-05 06:52:00,48.0,-99.9,30.13,SSW,201,4.0,4.0,-999,-99.99,,,-99.99,,2013-03-05 11:52:00,
2013-03-05 07:03:00,48.0,-99.9,30.13,SSW,195,5.0,5.0,-999,-99.99,,,-99.99,,2013-03-05 12:03:00,
2013-03-05 07:12:00,48.0,-99.9,30.13,SSW,194,5.0,6.0,-999,-99.99,,,-99.99,,2013-03-05 12:12:00,
2013-03-05 07:22:00,48.0,-99.9,30.13,South,190,5.0,6.0,-999,-99.99,,,-99.99,,2013-03-05 12:22:00,
2013-03-05 07:32:00,48.0,-99.9,30.12,South,174,5.0,6.0,-999,-99.99,,,-99.99,,2013-03-05 12:32:00,
2013-03-05 07:42:00,48.0,-99.9,30.12,SSE,168,4.0,6.0,-999,-99.99,,,-99.99,,2013-03-05 12:42:00,
2013-03-05 07:53:00,47.0,-99.9,30.12,SSE,152,3.0,4.0,-999,-99.99,,,-99.99,,2013-03-05 12:53:00,
2013-03-05 08:02:00,48.0,-99.9,30.12,SSW,193,3.0,4.0,-999,-99.99,,,-99.99,,2013-03-05 13:02:00,
2013-03-05 08:12:00,49.0,-99.9,30.12,South,180,3.0,5.0,-999,-99.99,,,-99.99,,2013-03-05 13:12:00,
2013-03-05 08:22:00,49.0,-99.9,30.11,SE,141,4.0,6.0,-999,-99.99,,,-99.99,,2013-03-05 13:22:00,
2013-03-05 08:32:00,50.0,-99.9,30.11,SSE,152,4.0,6.0,-999,-99.99,,,-99.99,,2013-03-05 13:32:00,
2013-03-05 08:42:00,51.0,-99.9,30.12,SSE,165,4.0,7.0,-999,-99.99,,,-99.99,,2013-03-05 13:42:00,
2013-03-05 08:52:00,53.0,-99.9,30.11,SSE,149,5.0,7.0,-999,-99.99,,,-99.99,,2013-03-05 13:52:00,
2013-03-05 09:02:00,53.0,-99.9,30.11,SSE,149,5.0,9.0,-999,-99.99,,,-99.99,,2013-03-05 14:02:00,
2013-03-05 09:11:00,54.0,-99.9,30.11,SSE,161,5.0,8.0,-999,-99.99,,,-99.99,,2013-03-05 14:11:00,
2013-03-05 09:22:00,55.0,-99.9,30.11,SSE,162,4.0,8.0,-999,-99.99,,,-99.99,,2013-03-05 14:22:00,
2013-03-05 09:32:00,55.0,-99.9,30.11,South,171,3.0,7.0,-999,-99.99,,,-99.99,,2013-03-05 14:32:00,
2013-03-05 09:42:00,55.0,-99.9,30.11,SSE,164,6.0,10.0,-999,-99.99,,,-99.99,,2013-03-05 14:42:00,
2013-03-05 09:52:00,56.0,-99.9,30.10,South,171,5.0,10.0,-999,-99.99,,,-99.99,,2013-03-05 14:52:00,
2013-03-05 10:02:00,56.0,-99.9,30.09,SSE,166,6.0,9.0,-999,-99.99,,,-99.99,,2013-03-05 15:02:00,
2013-03-05 10:11:00,56.0,-99.9,30.09,South,175,7.0,13.0,-999,-99.99,,,-99.99,,2013-03-05 15:11:00,
2013-03-05 10:22:00,56.0,-99.9,30.09,South,175,9.0,14.0,-999,-99.99,,,-99.99,,2013-03-05 15:22:00,
2013-03-05 10:32:00,57.0,-99.9,30.10,SSW,193,7.0,13.0,-999,-99.99,,,-99.99,,2013-03-05 15:32:00,
2013-03-05 10:42:00,56.0,-99.9,30.09,South,186,9.0,17.0,-999,-99.99,,,-99.99,,2013-03-05 15:42:00,
2013-03-05 10:52:00,57.0,-99.9,30.08,South,188,12.0,17.0,-999,-99.99,,,-99.99,,2013-03-05 15:52:00,
2013-03-05 11:02:00,57.0,-99.9,30.08,SSW,193,11.0,18.0,-999,-99.99,,,-99.99,,2013-03-05 16:02:00,
2013-03-05 11:11:00,57.0,-99.9,30.09,South,187,11.0,17.0,-999,-99.99,,,-99.99,,2013-03-05 16:11:00,
2013-03-05 11:22:00,58.0,-99.9,30.08,SSW,194,9.0,15.0,-999,-99.99,,,-99.99,,2013-03-05 16:22:00,
2013-03-05 11:32:00,58.0,-99.9,30.08,South,190,11.0,15.0,-999,-99.99,,,-99.99,,2013-03-05 16:32:00,
2013-03-05 11:42:00,58.0,-99.9,30.08,South,189,11.0,17.0,-999,-99.99,,,-99.99,,2013-03-05 16:42:00,
2013-03-05 11:52:00,58.0,-99.9,30.07,South,186,11.0,16.0,-999,-99.99,,,-99.99,,2013-03-05 16:52:00,
2013-03-05 12:01:00,58.0,-99.9,30.06,South,191,11.0,20.0,-999,-99.99,,,-99.99,,2013-03-05 17:01:00,
2013-03-05 12:11:00,58.0,-99.9,30.06,South,184,13.0,18.0,-999,-99.99,,,-99.99,,2013-03-05 17:11:00,
2013-03-05 12:22:00,58.0,-99.9,30.05,South,184,12.0,17.0,-999,-99.99,,,-99.99,,2013-03-05 17:22:00,
2013-03-05 12:32:00,59.0,-99.9,30.05,South,188,11.0,18.0,-999,-99.99,,,-99.99,,2013-03-05 17:32:00,
2013-03-05 12:42:00,58.0,-99.9,30.04,South,181,12.0,21.0,-999,-99.99,,,-99.99,,2013-03-05 17:42:00,
2013-03-05 12:53:00,59.0,-99.9,30.03,South,184,13.0,19.0,-999,-99.99,,,-99.99,,2013-03-05 17:53:00,
2013-03-05 13:02:00,58.0,-99.9,30.02,South,179,13.0,19.0,-999,-99.99,,,-99.99,,2013-03-05 18:02:00,
2013-03-05 13:11:00,58.0,-99.9,30.01,South,181,11.0,17.0,-999,-99.99,,,-99.99,,2013-03-05 18:11:00,
2013-03-05 13:22:00,58.0,-99.9,30.01,South,176,12.0,17.0,-999,-99.99,,,-99.99,,2013-03-05 18:22:00,
2013-03-05 13:32:00,58.0,-99.9,30.01,South,179,8.0,15.0,-999,-99.99,,,-99.99,,2013-03-05 18:32:00,
2013-03-05 13:42:00,58.0,-99.9,30.00,South,175,9.0,15.0,-999,-99.99,,,-99.99,,2013-03-05 18:42:00,
2013-03-05 13:53:00,58.0,-99.9,29.99,South,177,10.0,18.0,-999,-99.99,,,-99.99,,2013-03-05 18:53:00,
2013-03-05 14:02:00,58.0,-99.9,29.98,South,177,7.0,13.0,-999,-99.99,,,-99.99,,2013-03-05 19:02:00,
2013-03-05 14:11:00,58.0,-99.9,29.98,South,186,8.0,13.0,-999,-99.99,,,-99.99,,2013-03-05 19:11:00,
2013-03-05 14:22:00,58.0,-99.9,29.96,South,184,10.0,15.0,-999,-99.99,,,-99.99,,2013-03-05 19:22:00,
2013-03-05 14:32:00,58.0,-99.9,29.96,South,190,10.0,17.0,-999,-99.99,,,-99.99,,2013-03-05 19:32:00,
2013-03-05 14:42:00,58.0,-99.9,29.96,South,186,8.0,15.0,-999,-99.99,,,-99.99,,2013-03-05 19:42:00,
2013-03-05 14:52:00,58.0,-99.9,29.96,South,188,9.0,16.0,-999,-99.99,,,-99.99,,2013-03-05 19:52:00,
2013-03-05 15:02:00,58.0,-99.9,29.95,South,189,10.0,14.0,-999,-99.99,,,-99.99,,2013-03-05 20:02:00,
2013-03-05 15:11:00,58.0,-99.9,29.95,SSW,193,10.0,15.0,-999,-99.99,,,-99.99,,2013-03-05 20:11:00,
2013-03-05 15:22:00,58.0,-99.9,29.95,SSW,195,10.0,17.0,-999,-99.99,,,-99.99,,2013-03-05 20:22:00,
2013-03-05 15:32:00,58.0,-99.9,29.95,South,190,9.0,14.0,-999,-99.99,,,-99.99,,2013-03-05 20:32:00,
2013-03-05 15:42:00,58.0,-99.9,29.94,South,191,8.0,14.0,-999,-99.99,,,-99.99,,2013-03-05 20:42:00,
2013-03-05 15:52:00,58.0,-99.9,29.94,South,188,8.0,13.0,-999,-99.99,,,-99.99,,2013-03-05 20:52:00,
2013-03-05 16:02:00,58.0,-99.9,29.93,SSW,196,9.0,15.0,-999,-99.99,,,-99.99,,2013-03-05 21:02:00,
2013-03-05 16:11:00,58.0,-99.9,29.93,SSW,195,10.0,14.0,-999,-99.99,,,-99.99,,2013-03-05 21:11:00,
2013-03-05 16:22:00,59.0,-99.9,29.93,SSW,197,11.0,18.0,-999,-99.99,,,-99.99,,2013-03-05 21:22:00,
2013-03-05 16:32:00,59.0,-99.9,29.92,South,189,9.0,14.0,-999,-99.99,,,-99.99,,2013-03-05 21:32:00,
2013-03-05 16:42:00,59.0,-99.9,29.91,South,188,8.0,14.0,-999,-99.99,,,-99.99,,2013-03-05 21:42:00,
2013-03-05 16:53:00,60.0,-99.9,29.91,South,190,10.0,17.0,-999,-99.99,,,-99.99,,2013-03-05 21:53:00,
2013-03-05 17:01:00,60.0,-99.9,29.90,South,188,9.0,17.0,-999,-99.99,,,-99.99,,2013-03-05 22:01:00,
2013-03-05 17:12:00,61.0,-99.9,29.89,South,188,10.0,15.0,-999,-99.99,,,-99.99,,2013-03-05 22:12:00,
2013-03-05 17:22:00,61.0,-99.9,29.88,South,178,9.0,18.0,-999,-99.99,,,-99.99,,2013-03-05 22:22:00,
2013-03-05 17:32:00,61.0,-99.9,29.87,South,176,11.0,19.0,-999,-99.99,,,-99.99,,2013-03-05 22:32:00,
2013-03-05 17:42:00,61.0,-99.9,29.86,South,182,11.0,18.0,-999,-99.99,,,-99.99,,2013-03-05 22:42:00,
2013-03-05 17:52:00,61.0,-99.9,29.85,SSE,167,12.0,25.0,-999,-99.99,,,-99.99,,2013-03-05 22:52:00,
2013-03-05 18:01:00,60.0,-99.9,29.85,South,169,12.0,24.0,-999,-99.99,,,-99.99,,2013-03-05 23:01:00,
2013-03-05 18:11:00,60.0,-99.9,29.85,South,173,12.0,20.0,-999,-99.99,,,-99.99,,2013-03-05 23:11:00,
2013-03-05 18:22:00,60.0,-99.9,29.85,South,180,13.0,22.0,-999,-99.99,,,-99.99,,2013-03-05 23:22:00,
2013-03-05 18:32:00,60.0,-99.9,29.85,South,184,11.0,16.0,-999,-99.99,,,-99.99,,2013-03-05 23:32:00,
2013-03-05 18:42:00,60.0,-99.9,29.85,South,186,12.0,19.0,-999,-99.99,,,-99.99,,2013-03-05 23:42:00,
2013-03-05 18:53:00,59.0,-99.9,29.85,South,189,11.0,19.0,-999,-99.99,,,-99.99,,2013-03-05 23:53:00,
2013-03-05 19:02:00,59.0,-99.9,29.85,South,189,8.0,14.0,-999,-99.99,,,-99.99,,2013-03-06 00:02:00,
2013-03-05 19:11:00,59.0,-99.9,29.84,SSW,192,10.0,15.0,-999,-99.99,,,-99.99,,2013-03-06 00:11:00,
2013-03-05 19:22:00,59.0,-99.9,29.84,SSW,192,11.0,15.0,-999,-99.99,,,-99.99,,2013-03-06 00:22:00,
2013-03-05 19:32:00,59.0,-99.9,29.83,SSW,194,9.0,14.0,-999,-99.99,,,-99.99,,2013-03-06 00:32:00,
2013-03-05 19:42:00,59.0,-99.9,29.82,South,187,8.0,13.0,-999,-99.99,,,-99.99,,2013-03-06 00:42:00,
2013-03-05 19:52:00,60.0,-99.9,29.83,South,188,9.0,15.0,-999,-99.99,,,-99.99,,2013-03-06 00:52:00,
2013-03-05 20:02:00,60.0,-99.9,29.82,South,185,10.0,22.0,-999,-99.99,,,-99.99,,2013-03-06 01:02:00,
2013-03-05 20:11:00,59.0,-99.9,29.81,South,190,9.0,14.0,-999,-99.99,,,-99.99,,2013-03-06 01:11:00,
2013-03-05 20:22:00,59.0,-99.9,29.80,South,180,9.0,16.0,-999,-99.99,,,-99.99,,2013-03-06 01:22:00,
2013-03-05 20:32:00,59.0,-99.9,29.78,South,185,9.0,16.0,-999,-99.99,,,-99.99,,2013-03-06 01:32:00,
2013-03-05 20:42:00,59.0,-99.9,29.79,South,184,8.0,13.0,-999,-99.99,,,-99.99,,2013-03-06 01:42:00,
2013-03-05 20:52:00,59.0,-99.9,29.78,SSW,197,9.0,15.0,-999,-99.99,,,-99.99,,2013-03-06 01:52:00,
2013-03-05 21:01:00,60.0,-99.9,29.78,SSW,198,12.0,16.0,-999,-99.99,,,-99.99,,2013-03-06 02:01:00,
2013-03-05 21:11:00,60.0,-99.9,29.78,SSW,197,12.0,15.0,-999,-99.99,,,-99.99,,2013-03-06 02:11:00,
2013-03-05 21:22:00,60.0,-99.9,29.77,SSW,198,12.0,17.0,-999,-99.99,,,-99.99,,2013-03-06 02:22:00,
2013-03-05 21:32:00,60.0,-99.9,29.76,SSW,196,13.0,19.0,-999,-99.99,,,-99.99,,2013-03-06 02:32:00,
2013-03-05 21:42:00,62.0,-99.9,29.76,SSW,203,14.0,22.0,-999,-99.99,,,-99.99,,2013-03-06 02:42:00,
2013-03-05 21:52:00,63.0,-99.9,29.77,SSW,205,14.0,23.0,-999,-99.99,,,-99.99,,2013-03-06 02:52:00,
2013-03-05 22:02:00,64.0,-99.9,29.77,SSW,206,13.0,22.0,-999,-99.99,,,-99.99,,2013-03-06 03:02:00,
2013-03-05 22:12:00,64.0,-99.9,29.77,SSW,203,13.0,19.0,-999,-99.99,,,-99.99,,2013-03-06 03:12:00,
2013-03-05 22:22:00,64.0,-99.9,29.77,SSW,208,16.0,25.0,-999,-99.99,,,-99.99,,2013-03-06 03:22:00,
2013-03-05 22:32:00,64.0,-99.9,29.77,SSW,211,10.0,17.0,-999,-99.99,,,-99.99,,2013-03-06 03:32:00,
2013-03-05 22:42:00,64.0,-99.9,29.76,SSW,207,14.0,21.0,-999,-99.99,,,-99.99,,2013-03-06 03:42:00,
2013-03-05 22:53:00,64.0,-99.9,29.77,SW,215,13.0,22.0,-999,-99.99,,,-99.99,,2013-03-06 03:53:00,
2013-03-05 23:02:00,63.0,-99.9,29.80,West,270,19.0,24.0,-999,-99.99,,,-99.99,,2013-03-06 04:02:00,
2013-03-05 23:11:00,60.0,-99.9,29.80,West,270,23.0,30.0,-999,-99.99,,,-99.99,,2013-03-06 04:11:00,
2013-03-05 23:22:00,61.0,-99.9,29.79,WSW,254,17.0,26.0,-999,-99.99,,,-99.99,,2013-03-06 04:22:00,
2013-03-05 23:32:00,60.0,-99.9,29.78,WSW,246,15.0,21.0,-999,-99.99,,,-99.99,,2013-03-06 04:32:00,
2013-03-05 23:42:00,60.0,-99.9,29.78,WSW,253,17.0,25.0,-999,-99.99,,,-99.99,,2013-03-06 04:42:00,
2013-03-05 23:52:00,59.0,-99.9,29.78,WSW,246,13.0,18.0,-999,-99.99,,,-99.99,,2013-03-06 04:52:00,